Las Vegas, NV

6:14 PM PST on February 25, 2018 (GMT -0800)
McCarran International

Weather History for KLAS - June, 2013

Change the Weather History Date:

Friday, June 14, 2013

  Actual Average Record
Temperature  
Mean Temperature 89 °F 86 °F  
Max Temperature 102 °F 98 °F 115 °F (1940)
Min Temperature 75 °F 74 °F 55 °F (1943)
Degree Days  
Heating Degree Days 0 0  
Month to date heating degree days 0 0  
Since 1 June heating degree days 0 0  
Since 1 July heating degree days 1757 1950  
Cooling Degree Days 24 21  
Month to date cooling degree days 380 270  
Year to date cooling degree days 1070 820  
Since 1 June cooling degree days 380 270  
Growing Degree Days 38 (Base 50)    
Moisture  
Dew Point 7 °F    
Average Humidity 8    
Maximum Humidity 13    
Minimum Humidity 2    
Precipitation  
Precipitation 0.00 in 0.01 in 0.00 in (2018)
Month to date precipitation 0.00 0.04  
Year to date precipitation 0.61 2.05  
Snow  
Snow 0.00 in 0.00 in 0.00 in ()
Month to date snowfall 0.0 0.0  
Since 1 June snowfall 0.0 0.0  
Since 1 July snowfall T 0.3  
Snow Depth 0.00 in    
Sea Level Pressure  
Sea Level Pressure 29.68 in    
Wind  
Wind Speed 10 mph (SSW)    
Max Wind Speed 23 mph    
Max Gust Speed 29 mph    
Visibility 10 miles    
Events      
T = Trace of Precipitation, MM = Missing Value Source: NWS Daily Summary

Daily Weather History Graph

Daily Weather History Graph

Search for Another Location

Airport or City:

Trip Planner

Search our weather history database for the weather conditions in past years. The results will help you decide how hot, cold, wet, or windy it might be!

Date:

Astronomy

Jun. 14, 2013 Rise Set
Actual Time 5:23 AM PDT 7:58 PM PDT
Civil Twilight 4:52 AM PDT 8:29 PM PDT
Nautical Twilight 4:15 AM PDT 9:06 PM PDT
Astronomical Twilight 3:33 AM PDT 9:48 PM PDT
Moon 10:53 AM PDT (6/14) 11:47 PM PDT (6/14)
Length of Visible Light 15h 36m
Length of Day
14h 35m
Waxing Crescent, 31% of the Moon is Illuminated
Jun 14
Waxing Crescent
Jun 16
First Quarter
Jun 23
Full
Jun 29
Last Quarter
Jul 8
New

Hourly Weather History & Observations

Time (PDT) Temp. Dew Point Humidity Pressure Visibility Wind Dir Wind Speed Gust Speed Precip Events Conditions
12:56 AM 84.9 °F 9.0 °F 6% 29.68 in 10.0 mi South 13.8 mph - N/A   Clear
1:56 AM 82.0 °F 16.0 °F 8% 29.69 in 10.0 mi SSW 11.5 mph - N/A   Clear
2:56 AM 80.1 °F 18.0 °F 10% 29.69 in 10.0 mi South 10.4 mph - N/A   Clear
3:56 AM 78.1 °F 19.0 °F 11% 29.71 in 10.0 mi South 8.1 mph - N/A   Clear
4:56 AM 75.9 °F 21.0 °F 13% 29.72 in 10.0 mi South 10.4 mph - N/A   Clear
5:56 AM 75.0 °F 21.0 °F 13% 29.75 in 10.0 mi SSW 10.4 mph - N/A   Clear
6:56 AM 78.1 °F 19.9 °F 11% 29.75 in 10.0 mi SSW 9.2 mph - N/A   Clear
7:56 AM 82.9 °F 15.1 °F 8% 29.76 in 10.0 mi SSW 9.2 mph - N/A   Clear
8:56 AM 87.1 °F 15.1 °F 7% 29.77 in 10.0 mi Calm Calm - N/A   Clear
9:56 AM 89.1 °F 9.0 °F 5% 29.76 in 10.0 mi Calm Calm - N/A   Clear
10:56 AM 91.0 °F 6.1 °F 4% 29.75 in 10.0 mi Calm Calm - N/A   Clear
11:56 AM 91.9 °F 6.1 °F 4% 29.74 in 10.0 mi Variable 5.8 mph - N/A   Clear
12:56 PM 96.1 °F 7.0 °F 4% 29.71 in 10.0 mi East 8.1 mph - N/A   Clear
1:56 PM 97.0 °F 10.0 °F 4% 29.68 in 10.0 mi SE 6.9 mph - N/A   Clear
2:56 PM 100.0 °F 10.9 °F 4% 29.65 in 10.0 mi ESE 9.2 mph 16.1 mph N/A   Clear
3:56 PM 102.0 °F -8.0 °F 4% 29.62 in 10.0 mi West 10.4 mph 16.1 mph N/A   Clear
4:56 PM 100.9 °F -2.9 °F 4% 29.61 in 10.0 mi SW 15.0 mph 23.0 mph N/A   Clear
5:56 PM 100.0 °F 1.0 °F 4% 29.60 in 10.0 mi SW 15.0 mph - N/A   Clear
6:56 PM 98.1 °F -5.1 °F 4% 29.60 in 10.0 mi SW 15.0 mph - N/A   Clear
7:56 PM 95.0 °F -4.0 °F 4% 29.60 in 10.0 mi WSW 15.0 mph - N/A   Clear
8:56 PM 91.9 °F -2.0 °F 4% 29.61 in 10.0 mi SW 12.7 mph - N/A   Clear
9:56 PM 91.0 °F -0.0 °F 4% 29.63 in 10.0 mi SW 12.7 mph - N/A   Clear
10:56 PM 86.0 °F -0.0 °F 4% 29.65 in 10.0 mi South 12.7 mph - N/A   Clear
11:56 PM 82.9 °F 3.0 °F 5% 29.65 in 10.0 mi South 12.7 mph - N/A   Clear